Retour au catalogue

OPS 6553

ActifNavigationPO
NORAD 13172·PAYLOAD·🇺🇸 United States

Lancé May 11, 1982 depuis Vandenberg Space Force Base

Loading…

Prochains Passages (prochaines 24 heures)

TLE

FraisSource: Space-Track

Époque: Sep 13, 2026, 23:50 UTC

1 13172U 82041C   26256.99348025  .00002975  00000-0  20203-3 0  9993
2 13172  96.0121 351.5697 0008475 347.6058  12.4964 15.06868822129035

Suivez OPS 6553 en temps réel avec AllMySat

Download on the App Store